Location: Stuttgart
(48.8069°N, 9.1544°E)
Time: 16:02:00
(UTC+02:00)

ISS - Visible Passes

Search period start: 24 May 2018 00:00
Search period end: 03 June 2018 00:00
Orbit: 402 x 407 km, 51.6° (Epoch: 25 May)

Date Brightness Start Highest point End Pass type
(mag) Time Alt. Az. Time Alt. Az. Time Alt. Az.
24 May -3.2 01:21:47 10° WNW 01:25:01 56° N 01:27:54 12° E visible
24 May -2.8 02:58:20 10° WNW 03:00:18 31° W 03:00:18 31° W visible
24 May -3.5 22:52:45 10° W 22:56:01 69° NNW 22:59:17 10° ENE visible
25 May -2.9 00:29:33 10° WNW 00:32:45 50° N 00:35:43 12° E visible
25 May -3.0 02:06:06 10° WNW 02:08:17 38° W 02:08:17 38° W visible
25 May -3.9 22:00:31 10° WSW 22:03:48 87° SSE 22:07:05 10° ENE visible
25 May -2.9 23:37:16 10° WNW 23:40:27 49° N 23:43:39 10° ENE visible
26 May -3.8 01:13:54 10° WNW 01:17:11 78° NNE 01:17:14 77° NE visible
26 May -3.0 22:44:57 10° W 22:48:10 53° N 22:51:23 10° ENE visible
27 May -3.4 00:21:40 10° WNW 00:24:55 60° NNE 00:26:25 28° E visible
27 May -1.6 01:58:14 10° WNW 01:59:02 16° W 01:59:02 16° W visible
27 May -3.3 21:52:37 10° W 21:55:52 63° NNW 21:59:07 10° ENE visible
27 May -3.0 23:29:24 10° WNW 23:32:37 51° N 23:35:41 11° E visible
28 May -3.1 01:05:57 10° WNW 01:08:19 42° W 01:08:19 42° W visible
28 May -2.9 22:37:05 10° WNW 22:40:18 49° N 22:43:30 10° ENE visible
29 May -3.9 00:13:42 10° WNW 00:16:59 87° NNE 00:17:38 54° ESE visible
29 May -3.5 23:21:26 10° WNW 23:24:42 65° NNE 23:27:01 18° E visible
30 May -2.1 00:58:03 10° W 00:59:38 23° W 00:59:38 23° W visible
30 May -3.1 22:29:09 10° WNW 22:32:23 54° N 22:35:36 10° E visible
31 May -3.8 00:05:41 10° WNW 00:08:54 55° SSW 00:09:02 54° SSW visible
31 May -3.9 23:13:23 10° WNW 23:16:40 83° SSW 23:18:26 25° ESE visible
01 Jun -1.4 00:50:26 10° W 00:51:05 13° WSW 00:51:05 13° WSW visible
01 Jun -3.6 22:21:05 10° WNW 22:24:22 72° NNE 22:27:38 10° ESE visible
01 Jun -2.7 23:57:46 10° W 00:00:31 29° SW 00:00:31 29° SW visible
02 Jun -3.4 23:05:19 10° WNW 23:08:29 47° SSW 23:09:59 25° SSE visible
